CAPE
1 1 2 0 0 0 0 0 0 0 0 0 0 0 0 0 0 0 0 0 0 0 0 0 0 0 0 0 0 0 0 0 0 0 0 0 0 0 0 0 0 0 1 0 0 0 366
1 1 2 1 0 0 0 0 0 0 0 0 0 0 0 0 0 0 0 0 0 0 0 0 0 0 0 0 0 0 0 0 0 0 0 0 0 0 0 0 0 0 0 0 0 19 184
1 1 2 2 0 0 0 0 0 0 0 0 2 2 0 0 0 0 0 0 0 0 0 0 0 0 0 0 0 0 0 0 0 0 0 0 0 0 0 0 0 0 0 0 45 373 295
2 1 1 2 0 0 0 0 0 0 0 2 2 1 0 0 0 0 0 0 0 0 0 0 0 0 0 0 0 0 0 0 0 0 0 0 0 0 0 0 0 0 0 0 211 363 164
4 2 1 1 0 0 0 0 0 1 1 1 2 0 0 0 0 0 0 0 0 0 0 0 0 0 0 0 0 0 0 0 0 0 0 0 0 0 0 0 0 0 0 0 0 264 253
3 1 1 0 0 0 0 1 1 3 2 0 0 0 0 0 0 0 0 0 0 0 0 0 0 0 0 0 0 0 0 0 0 0 0 0 0 0 0 0 0 0 0 0 0 42 48
1 0 0 0 0 0 2 1 0 2 1 0 0 0 0 0 0 0 0 0 0 0 0 0 0 0 0 0 0 0 0 0 0 0 0 0 0 0 0 0 0 0 0 0 0 0 0
0 0 0 0 2 2 1 1 1 0 0 0 0 0 0 0 0 0 0 0 0 0 0 0 0 0 0 0 0 0 0 0 0 0 0 0 0 0 0 0 0 0 0 0 0 0 0
0 0 0 2 3 1 0 0 0 0 0 0 0 0 0 0 0 0 0 0 0 0 0 0 0 0 0 0 0 0 0 0 0 0 0 0 0 0 0 0 0 0 0 0 0 0 68
0 0 0 1 0 1 1 0 0 0 0 0 0 0 0 0 0 0 0 0 0 0 0 0 0 0 0 0 0 0 0 0 0 0 0 0 0 0 0 0 0 0 0 0 0 0 0
0 0 2 1 1 0 0 0 0 0 0 0 0 0 0 0 0 0 0 0 0 0 0 0 0 0 0 0 0 0 0 0 0 0 0 0 0 0 0 0 0 0 0 0 0 0 0
0 2 3 1 3 0 0 0 0 0 0 0 0 0 0 0 0 0 0 0 0 0 0 0 0 0 0 0 0 0 0 0 0 0 0 0 0 0 0 0 0 0 0 0 0 0 0
0 0 1 2 2 0 0 0 0 0 0 0 0 0 0 0 0 0 0 0 0 0 0 0 0 0 0 0 0 0 0 0 0 0 0 0 0 0 0 0 0 0 0 0 0 0 0
0 0 2 1 2 0 0 0 0 0 0 0 0 0 0 0 0 0 0 0 0 0 0 0 0 0 0 0 0 0 0 0 0 0 0 0 0 0 0 0 0 0 0 0 0 0 0
0 2 0 2 1 0 0 0 0 0 0 0 0 0 0 0 0 0 0 0 0 0 0 0 0 0 0 0 0 0 0 0 0 0 0 0 0 0 0 0 0 0 0 0 0 0 0
0 2 0 0 0 0 0 0 0 0 0 0 0 0 0 0 0 0 0 0 0 0 0 0 0 0 0 0 0 0 0 0 0 0 0 0 0 0 0 0 0 0 0 0 0 0 0
0 1 0 1 0 0 0 0 0 0 0 0 0 0 0 0 0 0 0 0 0 0 0 0 0 0 0 0 0 0 0 0 0 0 0 0 0 0 0 0 0 0 0 0 0 0 0
0 1 0 1 0 0 0 0 0 0 0 0 0 0 0 0 0 0 0 0 0 0 0 0 0 0 0 0 0 0 0 0 0 0 0 0 0 0 0 0 0 0 0 0 0 0 0
0 1 0 3 0 0 0 0 0 0 0 0 0 0 0 0 0 0 0 0 0 0 0 0 0 0 0 0 0 0 0 0 0 0 0 0 0 0 0 0 0 0 0 0 0 0 0
0 0 0 1 0 0 0 0 0 0 0 0 0 0 0 0 0 0 0 0 0 0 0 0 0 0 0 0 0 0 0 0 0 0 0 0 0 0 0 0 0 0 0 0 0 0 0
0 0 1 1 0 0 0 0 0 0 0 0 0 0 0 0 0 0 0 0 0 0 0 0 0 0 0 0 0 0 0 0 0 0 0 0 0 0 0 0 0 0 0 0 0 0 0
0 0 0 0 0 0 0 0 0 0 0 0 0 0 0 0 0 0 0 0 0 0 0 0 0 0 0 0 0 0 0 0 0 0 0 0 0 0 0 0 0 0 0 0 0 0 0
0 0 1 0 0 0 0 0 0 0 0 0 0 0 0 0 0 0 0 0 0 0 0 0 0 0 0 0 0 0 0 0 0 0 0 0 0 0 0 0 0 0 0 0 0 0 0
0 0 0 1 0 0 0 0 0 0 0 0 0 0 0 0 0 0 0 0 0 0 0 0 0 0 0 0 0 0 0 0 0 0 0 0 0 0 0 0 0 0 0 0 0 0 0
0 0 0 0 0 0 0 0 0 0 0 0 0 0 0 0 0 0 0 0 0 0 0 0 0 0 0 0 0 0 0 0 0 0 0 0 0 0 0 0 0 0 0 0 0 0 0
0 0 0 0 0 0 0 0 0 0 0 0 0 0 0 0 0 0 0 0 0 0 0 0 0 0 0 0 0 0 0 0 0 0 0 0 0 0 0 0 0 0 0 0 0 0 0
0 0 0 0 0 0 0 0 0 0 0 0 0 0 0 0 0 0 0 0 0 0 0 0 0 0 0 0 0 0 0 0 0 0 0 0 0 0 0 0 0 0 0 0 0 0 0
0 0 0 0 0 0 0 0 0 0 0 0 0 0 0 0 0 0 0 0 0 0 0 0 0 0 0 0 0 0 0 0 0 0 0 0 0 0 0 0 0 0 0 0 0 0 0
0 0 0 0 0 0 0 0 0 0 0 0 0 0 0 0 0 0 0 0 0 0 0 0 0 0 0 0 0 0 0 0 0 0 0 0 0 0 0 0 0 0 0 0 0 0 0
CIN
-0 -0 -0 -0 -0 -0 -0 -0 -0 -0 -0 -0 -0 -0 -0 -0 -0 -0 -0 -0 -0 -0 -0 -0 -0 -0 -0 -0 -0 -0 -0 -0 -0 -0 -0 -0 -0 -0 -0 -0 -0 -0 -122 -0 -0 -0 -27
-0 -0 -0 -0 -0 -0 -0 -0 -0 -0 -0 -0 -0 -0 -0 -0 -0 -0 -0 -0 -0 -0 -0 -0 -0 -0 -0 -0 -0 -0 -0 -0 -0 -0 -0 -0 -0 -0 -0 -0 -0 -0 -0 -0 -0 -74 -82
-0 -3 -0 -0 -0 -0 -0 -0 -0 -0 -0 -0 -0 -0 -0 -0 -0 -0 -0 -0 -0 -0 -0 -0 -0 -0 -0 -0 -0 -0 -0 -0 -0 -0 -0 -0 -0 -0 -0 -0 -0 -0 -0 -0 -60 -97 -73
-1 -3 -0 -0 -0 -0 -0 -0 -0 -0 -0 -0 -0 -0 -0 -0 -0 -0 -0 -0 -0 -0 -0 -0 -0 -0 -0 -0 -0 -0 -0 -0 -0 -0 -0 -0 -0 -0 -0 -0 -0 -0 -0 -0 -74 -64 -98
-2 -3 -0 -0 -0 -0 -0 -0 -0 -0 -0 -0 -0 -0 -0 -0 -0 -0 -0 -0 -0 -0 -0 -0 -0 -0 -0 -0 -0 -0 -0 -0 -0 -0 -0 -0 -0 -0 -0 -0 -0 -0 -0 -0 -0 -43 -74
-2 -2 -0 -0 -0 -0 -0 -0 -0 -0 -0 -0 -0 -0 -0 -0 -0 -0 -0 -0 -0 -0 -0 -0 -0 -0 -0 -0 -0 -0 -0 -0 -0 -0 -0 -0 -0 -0 -0 -0 -0 -0 -0 -0 -0 -38 -7
-0 -0 -0 -0 -0 -0 -0 -0 -1 -0 -0 -0 -0 -0 -0 -0 -0 -0 -0 -0 -0 -0 -0 -0 -0 -0 -0 -0 -0 -0 -0 -0 -0 -0 -0 -0 -0 -0 -0 -0 -0 -0 -0 -0 -0 -0 -0
-0 -0 -0 -0 -0 -0 -0 -0 -0 -0 -0 -0 -0 -0 -0 -0 -0 -0 -0 -0 -0 -0 -0 -0 -0 -0 -0 -0 -0 -0 -0 -0 -0 -0 -0 -0 -0 -0 -0 -0 -0 -0 -0 -0 -0 -0 -0
-0 -0 -0 -0 -0 -1 -0 -0 -0 -0 -0 -0 -0 -0 -0 -0 -0 -0 -0 -0 -0 -0 -0 -0 -0 -0 -0 -0 -0 -0 -0 -0 -0 -0 -0 -0 -0 -0 -0 -0 -0 -0 -0 -0 -0 -0 -117
-0 -0 -0 -0 -0 -0 -0 -0 -0 -0 -0 -0 -0 -0 -0 -0 -0 -0 -0 -0 -0 -0 -0 -0 -0 -0 -0 -0 -0 -0 -0 -0 -0 -0 -0 -0 -0 -0 -0 -0 -0 -0 -0 -0 -0 -0 -0
-0 -0 -0 -0 -0 -0 -0 -0 -0 -0 -0 -0 -0 -0 -0 -0 -0 -0 -0 -0 -0 -0 -0 -0 -0 -0 -0 -0 -0 -0 -0 -0 -0 -0 -0 -0 -0 -0 -0 -0 -0 -0 -0 -0 -0 -0 -0
-0 -0 -0 -0 -0 -1 -0 -0 -0 -0 -0 -0 -0 -0 -0 -0 -0 -0 -0 -0 -0 -0 -0 -0 -0 -0 -0 -0 -0 -0 -0 -0 -0 -0 -0 -0 -0 -0 -0 -0 -0 -0 -0 -0 -0 -0 -0
-0 -0 -0 -0 -0 -0 -0 -0 -0 -0 -0 -0 -0 -0 -0 -0 -0 -0 -0 -0 -0 -0 -0 -0 -0 -0 -0 -0 -0 -0 -0 -0 -0 -0 -0 -0 -0 -0 -0 -0 -0 -0 -0 -0 -0 -0 -0
-0 -0 -0 -0 -0 -0 -0 -0 -0 -0 -0 -0 -0 -0 -0 -0 -0 -0 -0 -0 -0 -0 -0 -0 -0 -0 -0 -0 -0 -0 -0 -0 -0 -0 -0 -0 -0 -0 -0 -0 -0 -0 -0 -0 -0 -0 -0
-0 -0 -0 -0 -0 -0 -0 -0 -0 -0 -0 -0 -0 -0 -0 -0 -0 -0 -0 -0 -0 -0 -0 -0 -0 -0 -0 -0 -0 -0 -0 -0 -0 -0 -0 -0 -0 -0 -0 -0 -0 -0 -0 -0 -0 -0 -0
-0 -0 -0 -0 -0 -0 -0 -0 -0 -0 -0 -0 -0 -0 -0 -0 -0 -0 -0 -0 -0 -0 -0 -0 -0 -0 -0 -0 -0 -0 -0 -0 -0 -0 -0 -0 -0 -0 -0 -0 -0 -0 -0 -0 -0 -0 -0
-0 -0 -0 -0 -0 -0 -0 -0 -0 -0 -0 -0 -0 -0 -0 -0 -0 -0 -0 -0 -0 -0 -0 -0 -0 -0 -0 -0 -0 -0 -0 -0 -0 -0 -0 -0 -0 -0 -0 -0 -0 -0 -0 -0 -0 -0 -0
-0 -0 -0 -0 -0 -0 -0 -0 -0 -0 -0 -0 -0 -0 -0 -0 -0 -0 -0 -0 -0 -0 -0 -0 -0 -0 -0 -0 -0 -0 -0 -0 -0 -0 -0 -0 -0 -0 -0 -0 -0 -0 -0 -0 -0 -0 -0
-0 -0 -0 -0 -0 -0 -0 -0 -0 -0 -0 -0 -0 -0 -0 -0 -0 -0 -0 -0 -0 -0 -0 -0 -0 -0 -0 -0 -0 -0 -0 -0 -0 -0 -0 -0 -0 -0 -0 -0 -0 -0 -0 -0 -0 -0 -0
-0 -0 -0 -0 -0 -0 -0 -0 -0 -0 -0 -0 -0 -0 -0 -0 -0 -0 -0 -0 -0 -0 -0 -0 -0 -0 -0 -0 -0 -0 -0 -0 -0 -0 -0 -0 -0 -0 -0 -0 -0 -0 -0 -0 -0 -0 -0
-0 -0 -0 -0 -0 -0 -0 -0 -0 -0 -0 -0 -0 -0 -0 -0 -0 -0 -0 -0 -0 -0 -0 -0 -0 -0 -0 -0 -0 -0 -0 -0 -0 -0 -0 -0 -0 -0 -0 -0 -0 -0 -0 -0 -0 -0 -0
-0 -0 -0 -0 -0 -0 -0 -0 -0 -0 -0 -0 -0 -0 -0 -0 -0 -0 -0 -0 -0 -0 -0 -0 -0 -0 -0 -0 -0 -0 -0 -0 -0 -0 -0 -0 -0 -0 -0 -0 -0 -0 -0 -0 -0 -0 -0
-0 -0 -0 -0 -0 -0 -0 -0 -0 -0 -0 -0 -0 -0 -0 -0 -0 -0 -0 -0 -0 -0 -0 -0 -0 -0 -0 -0 -0 -0 -0 -0 -0 -0 -0 -0 -0 -0 -0 -0 -0 -0 -0 -0 -0 -0 -0
-0 -0 -0 -0 -0 -0 -0 -0 -0 -0 -0 -0 -0 -0 -0 -0 -0 -0 -0 -0 -0 -0 -0 -0 -0 -0 -0 -0 -0 -0 -0 -0 -0 -0 -0 -0 -0 -0 -0 -0 -0 -0 -0 -0 -0 -0 -0
-0 -0 -0 -0 -0 -0 -0 -0 -0 -0 -0 -0 -0 -0 -0 -0 -0 -0 -0 -0 -0 -0 -0 -0 -0 -0 -0 -0 -0 -0 -0 -0 -0 -0 -0 -0 -0 -0 -0 -0 -0 -0 -0 -0 -0 -0 -0
-0 -0 -0 -0 -0 -0 -0 -0 -0 -0 -0 -0 -0 -0 -0 -0 -0 -0 -0 -0 -0 -0 -0 -0 -0 -0 -0 -0 -0 -0 -0 -0 -0 -0 -0 -0 -0 -0 -0 -0 -0 -0 -0 -0 -0 -0 -0
-0 -0 -0 -0 -0 -0 -0 -0 -0 -0 -0 -0 -0 -0 -0 -0 -0 -0 -0 -0 -0 -0 -0 -0 -0 -0 -0 -0 -0 -0 -0 -0 -0 -0 -0 -0 -0 -0 -0 -0 -0 -0 -0 -0 -0 -0 -0
-0 -0 -0 -0 -0 -0 -0 -0 -0 -0 -0 -0 -0 -0 -0 -0 -0 -0 -0 -0 -0 -0 -0 -0 -0 -0 -0 -0 -0 -0 -0 -0 -0 -0 -0 -0 -0 -0 -0 -0 -0 -0 -0 -0 -0 -0 -0
-0 -0 -0 -0 -0 -0 -0 -0 -0 -0 -0 -0 -0 -0 -0 -0 -0 -0 -0 -0 -0 -0 -0 -0 -0 -0 -0 -0 -0 -0 -0 -0 -0 -0 -0 -0 -0 -0 -0 -0 -0 -0 -0 -0 -0 -0 -0
Wind_Speed
30 31 30 30 30 31 30 30 30 31 35 37 36 36 36 35 34 33 33 32 30 29 27 24 22 20 18 19 21 14 3 1 7 8 5 6 7 11 13 15 15 18 24 25 25 13 11
29 31 31 30 29 29 30 30 30 33 36 37 37 37 36 36 35 34 33 32 31 29 26 24 21 18 17 19 15 7 3 4 9 9 9 9 10 9 15 17 15 13 19 28 27 10 7
25 29 31 30 29 29 30 29 31 35 37 38 38 37 37 36 35 35 34 33 31 28 25 22 18 17 19 17 16 6 4 9 6 7 10 15 12 12 15 18 17 24 27 24 13 7 8
26 29 30 30 30 30 30 30 31 36 38 39 39 38 38 37 36 35 34 34 32 28 23 18 14 17 20 16 13 9 11 12 12 13 14 13 14 17 16 20 20 19 17 17 13 8 5
30 32 33 32 31 31 31 31 32 38 39 39 38 38 37 37 36 34 34 33 29 22 14 12 15 18 20 20 16 18 10 13 10 13 16 11 11 18 18 20 19 17 18 17 15 14 11
32 32 33 32 33 32 31 31 32 39 39 38 38 38 37 36 35 33 31 25 13 11 12 14 17 19 20 16 16 11 9 12 14 10 13 15 15 17 17 18 22 18 18 16 14 8 18
33 33 33 33 33 33 32 32 33 39 40 39 39 38 37 36 33 29 23 13 16 17 19 19 17 20 18 19 15 15 9 12 13 13 18 18 19 22 21 18 19 20 20 21 21 21 22
32 32 32 33 33 33 32 32 32 30 30 28 29 37 36 34 30 25 14 14 17 17 24 25 23 22 25 19 18 15 10 15 16 19 17 19 25 21 20 19 19 22 24 21 21 15 18
33 33 34 35 35 34 33 32 30 27 21 19 19 33 34 28 24 15 17 17 22 18 19 22 19 18 17 13 18 17 14 14 16 19 20 22 20 20 21 24 23 23 25 20 19 23 16
33 34 34 36 35 33 32 31 27 20 10 11 19 18 20 22 15 19 17 21 22 14 17 19 17 18 16 15 17 15 13 14 17 21 20 23 24 22 24 25 22 28 24 21 22 19 21
33 33 35 35 34 33 30 30 23 15 11 16 20 21 23 8 13 17 21 24 19 13 18 13 13 12 13 15 13 12 13 15 17 16 18 21 22 23 25 26 20 23 20 23 23 23 21
35 36 38 37 34 31 28 28 19 11 12 17 19 19 22 15 12 7 22 20 12 13 14 13 12 13 14 15 15 13 15 15 15 18 19 21 19 19 22 25 23 24 22 20 20 21 25
34 36 36 34 31 30 27 23 13 14 13 11 12 11 16 15 16 11 19 12 11 12 15 15 15 14 13 16 16 15 14 13 18 23 24 21 19 19 18 23 21 20 19 23 24 25 25
30 33 33 32 32 32 26 20 10 18 15 12 11 13 17 13 12 8 11 8 8 12 12 14 13 9 11 14 15 15 12 14 16 17 19 22 23 19 21 20 22 22 22 24 28 25 22
30 37 36 34 33 30 27 17 10 17 17 17 2 19 18 15 16 18 15 8 10 12 14 14 10 10 13 13 11 10 10 14 16 17 19 20 19 16 13 12 19 22 22 22 22 21 22
32 39 36 34 33 28 25 18 14 19 20 17 22 20 20 7 17 10 16 10 10 13 14 12 11 13 12 14 13 14 15 17 17 15 15 16 20 17 18 16 15 15 20 24 23 28 29
34 39 36 35 33 25 24 12 18 22 20 12 21 21 17 13 11 12 15 12 14 15 14 13 13 13 13 14 13 15 17 16 17 19 14 16 18 20 17 18 19 17 21 22 21 22 27
32 36 34 33 31 26 19 8 17 24 22 23 22 21 15 17 17 17 15 17 16 18 15 14 13 12 13 13 13 14 14 17 21 18 18 18 16 20 19 15 8 10 16 18 25 27 23
31 39 36 35 26 25 7 11 16 21 18 18 20 23 23 17 16 16 15 16 17 17 16 15 15 14 14 16 14 12 14 16 16 16 17 19 19 21 20 18 18 19 19 18 17 20 24
31 38 34 37 26 15 16 16 16 22 16 19 18 19 23 22 16 14 15 17 15 17 15 14 14 14 14 15 15 16 18 17 16 16 15 16 18 19 25 24 24 26 23 21 21 25 28
32 38 36 37 35 21 22 20 18 20 23 20 22 22 19 20 19 18 16 17 16 16 16 17 15 15 15 14 15 17 18 19 17 19 18 18 18 16 16 19 22 26 26 25 25 26 30
29 35 33 34 32 24 22 19 20 24 26 26 21 20 22 22 19 18 17 17 17 17 16 17 15 16 16 15 15 17 18 18 20 21 20 19 19 19 22 22 24 28 29 26 27 27 33
29 34 33 32 30 24 24 17 23 27 25 25 21 20 19 21 22 20 18 17 18 16 18 16 17 16 16 18 17 18 17 19 21 23 23 21 19 21 25 25 29 29 22 22 25 26 32
26 31 32 30 28 26 22 9 26 29 30 24 20 19 21 22 21 20 20 21 19 18 17 17 19 19 19 20 18 16 15 16 18 21 18 19 18 19 23 24 32 22 24 26 24 25 26
28 29 30 28 27 26 25 9 28 27 29 27 20 18 19 21 20 20 21 21 19 18 18 20 20 20 19 16 14 15 16 15 17 16 15 14 16 19 23 25 29 31 26 25 31 32 27
25 24 28 27 26 25 24 18 10 25 24 23 26 19 18 18 17 16 18 18 18 16 15 18 20 21 18 14 14 14 15 16 16 16 15 13 15 18 20 27 32 23 20 23 21 36 25
25 26 27 26 24 25 24 22 21 20 14 20 21 18 17 15 14 15 14 14 15 15 14 12 12 12 19 15 14 13 11 14 15 17 19 19 19 20 19 22 26 24 29 24 29 30 21
24 22 25 24 23 22 24 18 19 24 26 18 18 21 17 12 11 13 15 15 14 14 13 14 13 12 16 17 16 14 13 12 14 16 16 16 17 19 20 23 29 24 25 20 21 19 24
23 21 24 23 22 19 14 8 8 15 22 17 14 16 15 13 11 10 9 9 11 13 15 15 16 16 16 17 17 17 16 15 13 16 13 16 15 18 17 20 22 26 25 25 25 26 26
Wind_Direction
13 10 10 7 4 1 0 359 357 352 339 325 322 318 312 309 309 308 307 303 300 298 298 294 293 294 297 284 272 290 32 233 244 246 239 245 236 252 256 267 275 272 268 262 261 206 352
17 11 7 7 6 4 1 360 357 348 335 329 327 324 319 312 306 303 301 301 297 295 295 293 292 294 292 278 287 299 23 278 258 247 247 246 254 252 263 269 276 288 293 271 262 350 21
19 12 8 8 7 6 3 1 355 343 335 326 324 321 318 314 311 306 298 295 294 291 291 295 297 290 284 276 289 295 315 290 266 240 249 247 264 264 270 265 282 273 267 279 324 354 320
20 16 13 12 12 10 8 6 1 347 335 323 320 321 315 311 308 304 300 292 288 287 291 296 305 291 276 282 297 285 278 278 266 257 264 252 254 264 271 271 276 278 286 286 298 303 309
15 12 10 11 11 11 10 8 3 346 337 327 317 316 310 305 304 300 298 293 288 292 300 304 297 287 273 277 277 276 268 269 273 263 255 262 254 263 270 265 268 280 272 278 295 278 305
14 12 11 10 8 9 9 7 5 347 340 333 324 313 308 304 301 300 297 298 320 317 302 297 289 280 271 274 275 290 271 267 268 261 258 253 258 263 266 263 256 266 269 275 287 308 294
16 14 12 11 9 8 7 6 4 351 340 334 328 319 311 305 300 298 310 317 300 292 281 274 281 273 272 281 283 274 281 259 265 259 251 250 249 252 257 266 265 267 268 268 274 284 287
19 17 14 11 10 9 8 8 6 5 5 6 3 332 313 305 300 294 330 324 304 301 277 269 268 267 265 279 274 268 273 265 253 254 252 249 250 257 263 268 267 265 262 268 278 300 300
19 16 12 8 7 8 10 9 8 8 11 13 13 324 315 304 295 325 306 316 306 298 285 272 262 264 270 280 273 267 269 267 252 256 248 251 261 259 261 262 264 263 256 264 273 292 311
19 14 13 9 10 12 12 11 11 12 352 301 291 289 289 289 350 314 303 299 296 302 280 271 258 263 272 279 271 271 267 268 265 253 255 258 259 260 260 259 264 259 259 266 274 283 284
18 16 13 12 12 14 15 13 14 7 314 289 286 288 298 110 42 326 299 285 292 296 263 278 267 285 270 272 266 274 275 274 260 259 257 258 263 259 258 256 263 261 266 267 274 276 284
16 12 9 10 15 17 18 16 15 343 305 289 282 280 312 36 77 33 286 282 290 286 270 281 278 270 260 263 268 272 279 282 274 265 266 264 272 271 263 261 263 263 271 273 273 274 270
17 14 13 17 18 18 20 21 9 315 309 291 276 254 53 64 42 95 295 295 282 280 289 282 276 276 262 250 260 268 277 272 266 254 256 264 268 272 279 263 267 266 264 261 259 260 263
20 15 16 19 18 18 23 25 5 311 306 296 283 83 68 107 121 170 56 313 284 293 301 296 285 287 256 261 264 268 276 267 289 275 260 255 257 272 283 267 260 264 258 257 256 258 257
19 9 12 16 18 22 26 31 331 316 308 302 193 62 71 91 101 77 31 345 297 291 299 288 287 282 270 272 266 276 280 279 293 286 262 259 260 278 291 312 268 262 260 267 261 267 266
18 5 12 17 20 26 31 38 317 317 311 301 39 66 19 201 93 206 25 1 312 305 298 314 285 287 268 278 264 272 277 291 281 301 284 272 259 278 284 289 301 274 273 258 263 255 256
15 5 14 17 20 31 34 36 316 318 315 77 44 24 313 81 152 327 8 323 307 296 317 307 295 282 284 279 283 276 279 290 298 288 305 286 274 270 282 286 281 277 270 267 266 267 257
19 11 17 20 23 34 42 347 318 321 316 24 36 24 297 54 11 346 319 296 327 296 305 300 304 311 293 292 289 286 284 290 294 293 283 289 282 270 278 290 301 322 293 281 259 261 264
21 3 15 17 32 37 340 328 321 320 28 47 43 14 326 351 3 4 340 339 345 335 306 299 297 294 291 278 283 281 285 295 313 302 292 293 285 273 269 270 285 284 296 293 279 272 264
20 1 16 6 34 316 318 322 323 321 55 56 48 34 2 6 2 358 345 333 337 335 343 338 313 314 301 294 292 271 269 287 297 301 307 304 295 282 265 269 277 276 287 291 282 268 265
15 357 8 358 359 320 324 326 327 326 58 67 55 46 47 5 349 3 354 334 335 322 330 328 323 323 308 304 294 283 284 278 296 301 305 301 292 292 289 286 284 280 283 285 279 274 266
17 1 11 3 350 324 326 327 332 338 45 51 63 66 61 41 12 359 353 349 346 333 329 324 332 321 321 308 309 298 297 294 291 295 301 308 291 291 284 289 291 286 287 284 281 274 272
12 352 8 0 350 328 329 325 337 346 51 57 76 82 73 63 53 26 354 6 353 359 348 349 337 328 317 311 311 309 309 305 296 293 295 298 298 294 282 291 290 286 294 294 288 285 275
15 333 350 350 349 336 324 314 344 355 34 66 84 92 82 83 88 88 74 34 13 6 5 346 339 329 317 317 318 322 317 310 306 300 299 300 299 298 291 299 281 294 298 300 296 292 289
3 343 343 340 345 343 336 296 354 353 10 52 80 93 89 84 98 88 71 63 66 46 25 7 355 348 330 328 315 317 314 314 314 320 315 306 298 296 294 291 297 298 307 302 292 284 288
2 309 357 333 331 339 342 310 93 345 345 62 50 80 88 91 86 89 82 82 75 91 86 51 16 352 355 337 326 320 318 309 301 300 316 318 316 297 301 297 292 306 318 322 321 287 291
1 347 343 334 324 334 338 326 321 54 310 66 64 75 81 95 105 93 111 116 103 104 112 127 125 295 5 7 338 3 2 318 308 296 292 304 308 305 307 303 304 310 308 315 295 298 309
355 295 336 331 328 320 341 305 308 352 354 63 64 55 67 93 138 110 89 88 100 109 112 124 125 133 114 63 48 26 360 341 324 315 319 321 322 312 313 310 304 320 311 309 312 318 307
350 281 323 325 313 299 270 221 121 65 22 50 65 60 63 74 102 85 133 107 91 86 80 82 86 100 104 111 122 89 49 19 7 336 353 340 335 327 330 325 326 319 314 311 310 307 307